GW0353 Weather Reports


time (UTC)temp
C
wind
direction
speed
KPH
gust
KPH
rain 1hr
cm
rain 24hr
cm
rain mn
cm
humidity
%
barometer
mb
20260503211058 10 325 3.2 16.1 0.00 0.00 0.00 61 1015.5
20260503210558 9 266 3.2 20.9 0.00 0.00 0.00 61 1016.1
20260503210059 9 239 6.4 24.1 0.00 0.00 0.00 61 1016.5
20260503205558 9 191 9.7 24.1 0.00 0.00 0.00 61 1016.7
20260503205058 10 148 8.0 20.9 0.00 0.00 0.00 60 1016.9
20260503204559 10 219 8.0 19.3 0.00 0.00 0.00 56 1016.4
20260503204057 10 176 9.7 19.3 0.00 0.00 0.00 53 1016.3
20260503203559 11 210 9.7 19.3 0.00 0.00 0.00 52 1016.4
20260503203059 11 180 9.7 19.3 0.00 0.00 0.00 47 1016.4
20260503202559 11 153 1.6 20.9 0.00 0.00 0.00 48 1016.0
20260503202104 11 0 1.6 20.9 0.00 0.00 0.00 51 1015.8
20260503201559 11 154 6.4 19.3 0.00 0.00 0.00 51 1016.1
20260503201058 11 137 3.2 19.3 0.00 0.00 0.00 51 1016.0
20260503200558 11 287 8.0 24.1 0.00 0.00 0.00 48 1016.0
20260503200118 11 178 6.4 24.1 0.00 0.00 0.00 48 1016.4
20260503195558 12 198 6.4 25.7 0.00 0.00 0.00 46 1016.4
20260503195058 12 181 6.4 32.2 0.00 0.00 0.00 42 1016.4
20260503194604 12 139 12.9 32.2 0.00 0.00 0.00 37 1016.4
20260503194058 12 136 16.1 33.8 0.00 0.00 0.00 37 1016.4
20260503193559 12 124 17.7 35.4 0.00 0.00 0.00 37 1016.4
20260503193104 12 119 9.7 35.4 0.00 0.00 0.00 38 1016.4
20260503192558 12 143 20.9 45.1 0.00 0.00 0.00 38 1016.5
20260503192058 13 98 19.3 45.1 0.00 0.00 0.00 37 1016.4
20260503191606 13 150 16.1 35.4 0.00 0.00 0.00 36 1016.4
20260503191059 13 209 16.1 35.4 0.00 0.00 0.00 35 1016.2
20260503190558 13 141 12.9 37.0 0.00 0.00 0.00 36 1016.0
20260503190056 13 142 20.9 46.7 0.00 0.00 0.00 35 1016.0
20260503185558 14 153 22.5 46.7 0.00 0.00 0.00 34 1016.1
20260503185059 15 177 20.9 46.7 0.00 0.00 0.00 33 1016.1
20260503184626 15 132 22.5 46.7 0.00 0.00 0.00 34 1016.1
20260503184059 14 162 17.7 37.0 0.00 0.00 0.00 34 1016.2
20260503183559 14 113 20.9 37.0 0.00 0.00 0.00 35 1016.2
20260503183101 13 141 19.3 38.6 0.00 0.00 0.00 35 1016.1
20260503182602 14 115 19.3 38.6 0.00 0.00 0.00 35 1016.3
20260503182058 14 86 17.7 38.6 0.00 0.00 0.00 36 1016.3
20260503181614 15 91 14.5 29.0 0.00 0.00 0.00 34 1016.2
20260503181101 14 230 12.9 30.6 0.00 0.00 0.00 36 1016.3
20260503180600 14 81 12.9 30.6 0.00 0.00 0.00 36 1016.4
20260503180116 14 150 16.1 33.8 0.00 0.00 0.00 36 1016.5
20260503175557 14 77 14.5 37.0 0.00 0.00 0.00 35 1016.7
20260503175058 13 101 9.7 38.6 0.00 0.00 0.00 37 1016.8
20260503174559 13 136 17.7 38.6 0.00 0.00 0.00 37 1016.8
20260503174058 14 49 12.9 33.8 0.00 0.00 0.00 36 1016.8
20260503173558 14 103 14.5 33.8 0.00 0.00 0.00 36 1016.8
20260503173106 14 18 9.7 24.1 0.00 0.00 0.00 36 1016.6
20260503172558 13 75 11.3 32.2 0.00 0.00 0.00 36 1016.6
20260503172058 13 115 11.3 32.2 0.00 0.00 0.00 36 1016.8
20260503171559 13 94 14.5 35.4 0.00 0.00 0.00 34 1016.8
20260503171058 14 89 14.5 35.4 0.00 0.00 0.00 35 1016.8
20260503170559 14 140 9.7 25.7 0.00 0.00 0.00 36 1016.6
20260503150558 6 0 0.0 3.2 0.00 0.00 0.00 78 1018.1
20260503150109 6 0 0.0 3.2 0.00 0.00 0.00 78 1018.1
20260503131058 0 0 0.0 1.6 0.00 0.00 0.00 90 1018.1
20260503130559 0 176 0.0 1.6 0.00 0.00 0.00 87 1018.1
20260503110557 2 0 0.0 0.0 0.00 0.00 0.00 79 1018.5
20260503100116 3 0 1.6 4.8 0.00 0.00 0.00 75 1019.0
20260503081557 5 0 0.0 1.6 0.00 0.00 0.00 73 1019.4
20260503081057 5 0 0.0 3.2 0.00 0.00 0.00 73 1019.5
20260503080558 5 0 1.6 3.2 0.00 0.00 0.00 72 1019.4
20260503080107 5 176 0.0 3.2 0.00 0.00 0.00 71 1019.5
20260503072557 6 0 0.0 3.2 0.00 0.00 0.00 70 1019.8
20260503072059 6 167 1.6 3.2 0.00 0.00 0.00 66 1019.7
20260503071602 6 176 0.0 3.2 0.00 0.00 0.00 67 1019.8
20260503071102 6 179 0.0 3.2 0.00 0.00 0.00 66 1019.7
20260503070557 6 150 0.0 0.0 0.00 0.00 0.00 66 1019.7
20260503070104 6 0 0.0 0.0 0.00 0.00 0.00 65 1019.8
20260503055100 8 166 1.6 3.2 0.00 0.00 0.00 61 1020.0
20260503054600 8 176 1.6 3.2 0.00 0.00 0.00 61 1020.0
20260503054057 8 0 0.0 1.6 0.00 0.00 0.00 61 1020.0
20260503053558 8 172 1.6 1.6 0.00 0.00 0.00 60 1019.9
20260503053056 8 245 0.0 1.6 0.00 0.00 0.00 60 1019.9
20260503052558 8 0 0.0 6.4 0.00 0.00 0.00 60 1020.0
20260503052100 8 46 0.0 8.0 0.00 0.00 0.00 60 1019.9
20260503051558 8 0 3.2 8.0 0.00 0.00 0.00 60 1019.9
20260503051057 8 78 3.2 6.4 0.00 0.00 0.00 57 1019.8
20260503050558 8 0 0.0 3.2 0.00 0.00 0.00 57 1019.7
20260503050056 8 205 1.6 1.6 0.00 0.00 0.00 58 1019.7
20260503045600 8 0 0.0 1.6 0.00 0.00 0.00 58 1019.7
20260503045059 8 158 0.0 1.6 0.00 0.00 0.00 57 1019.7
20260503044608 9 0 0.0 1.6 0.00 0.00 0.00 57 1019.5
20260503044057 10 0 0.0 1.6 0.00 0.00 0.00 56 1019.5
20260503043557 10 0 0.0 4.8 0.00 0.00 0.00 55 1019.5
20260503043058 10 0 0.0 4.8 0.00 0.00 0.00 54 1019.5
20260503042557 10 194 0.0 4.8 0.00 0.00 0.00 55 1019.6
20260503042058 11 0 0.0 4.8 0.00 0.00 0.00 54 1019.5
20260503041601 11 229 0.0 4.8 0.00 0.00 0.00 53 1019.6
20260503041059 11 0 1.6 3.2 0.00 0.00 0.00 52 1019.5
20260503040559 11 0 0.0 1.6 0.00 0.00 0.00 52 1019.7
20260503040104 11 0 0.0 1.6 0.00 0.00 0.00 52 1019.7
20260503035558 11 0 0.0 4.8 0.00 0.00 0.00 52 1019.7
20260503035101 11 0 0.0 8.0 0.00 0.00 0.00 51 1019.6
20260503034602 11 57 4.8 9.7 0.00 0.00 0.00 51 1019.7
20260503034058 11 52 6.4 9.7 0.00 0.00 0.00 51 1019.3
20260503033601 11 336 3.2 9.7 0.00 0.00 0.00 46 1019.4
20260503033058 11 75 4.8 8.0 0.00 0.00 0.00 50 1019.3
20260503032558 11 243 0.0 8.0 0.00 0.00 0.00 52 1019.2
20260503032100 11 0 0.0 8.0 0.00 0.00 0.00 53 1019.6
20260503031559 11 41 3.2 6.4 0.00 0.00 0.00 54 1019.6
20260503031058 11 0 0.0 9.7 0.00 0.00 0.00 56 1019.6
20260503030557 11 229 3.2 9.7 0.00 0.00 0.00 54 1019.5
20260503030126 11 218 3.2 22.5 0.00 0.00 0.00 56 1019.4
20260503025558 11 0 6.4 22.5 0.00 0.00 0.00 56 1019.3
20260503025102 11 240 8.0 29.0 0.00 0.00 0.00 58 1019.3
20260503024604 11 250 9.7 29.0 0.00 0.00 0.00 56 1019.5
20260503024100 11 176 11.3 29.0 0.00 0.00 0.00 54 1019.3
20260503023600 12 140 4.8 20.9 0.00 0.00 0.00 52 1019.2
20260503023055 12 157 9.7 22.5 0.00 0.00 0.00 49 1019.5
20260503022557 12 228 8.0 22.5 0.00 0.00 0.00 49 1019.4
20260503022057 13 150 3.2 9.7 0.00 0.00 0.00 48 1019.5
20260503021606 12 179 3.2 8.0 0.00 0.00 0.00 49 1019.3
20260503021058 12 134 1.6 6.4 0.00 0.00 0.00 49 1019.3
20260503020558 12 130 3.2 8.0 0.00 0.00 0.00 50 1019.2
20260503020055 12 86 1.6 9.7 0.00 0.00 0.00 50 1019.3
20260503015558 13 58 6.4 9.7 0.00 0.00 0.00 50 1019.1
20260503015057 13 73 4.8 9.7 0.00 0.00 0.00 50 1019.1
20260503014605 13 53 3.2 11.3 0.00 0.00 0.00 52 1019.0
20260503014057 13 64 4.8 17.7 0.00 0.00 0.00 53 1019.0
20260503013557 13 60 6.4 17.7 0.00 0.00 0.00 55 1018.8
20260503013056 13 332 3.2 6.4 0.00 0.00 0.00 52 1018.7
20260503012557 13 336 0.0 6.4 0.00 0.00 0.00 51 1018.7
20260503012056 13 6 3.2 6.4 0.00 0.00 0.00 48 1018.6
20260503011600 13 57 3.2 8.0 0.00 0.00 0.00 47 1018.5
20260503011057 13 0 1.6 12.9 0.00 0.00 0.00 47 1018.6
20260503010558 14 245 3.2 17.7 0.00 0.00 0.00 46 1018.4
20260503010109 14 274 1.6 17.7 0.00 0.00 0.00 45 1018.4
20260503005559 14 59 6.4 17.7 0.00 0.00 0.00 44 1018.4
20260503005057 15 296 4.8 14.5 0.00 0.00 0.00 44 1018.4
20260503004600 14 266 4.8 14.5 0.00 0.00 0.00 46 1018.5
20260503004057 13 234 3.2 16.1 0.00 0.00 0.00 45 1018.7
20260503003557 13 191 4.8 16.1 0.00 0.00 0.00 45 1018.8
20260503003113 13 106 4.8 19.3 0.00 0.00 0.00 42 1018.9
20260503002557 14 322 4.8 19.3 0.00 0.00 0.00 42 1019.2
20260503002057 14 195 6.4 25.7 0.00 0.00 0.00 40 1018.9
20260503001555 15 139 3.2 25.7 0.00 0.00 0.00 39 1019.0
20260503001101 15 264 4.8 14.5 0.00 0.00 0.00 38 1019.2
20260503000557 15 220 1.6 4.8 0.00 0.00 0.00 40 1018.9
20260503000058 15 243 0.0 3.2 0.00 0.00 0.00 41 1018.9
20260502235557 15 0 0.0 3.2 0.00 0.00 0.00 41 1018.8
20260502235057 15 0 0.0 9.7 0.00 0.00 0.00 41 1018.9
20260502234556 15 0 0.0 9.7 0.00 0.00 0.00 40 1018.9
20260502234100 15 172 1.6 8.0 0.00 0.00 0.00 39 1018.9
20260502233557 15 252 0.0 4.8 0.00 0.00 0.00 38 1018.9
20260502233103 15 276 0.0 6.4 0.00 0.00 0.00 39 1018.9
20260502232557 15 0 1.6 11.3 0.00 0.00 0.00 39 1019.1
20260502232058 15 163 0.0 11.3 0.00 0.00 0.00 40 1019.2
20260502231606 15 183 3.2 11.3 0.00 0.00 0.00 40 1019.3
20260502231058 15 184 0.0 29.0 0.00 0.00 0.00 36 1019.4
20260502230559 15 257 8.0 29.0 0.00 0.00 0.00 35 1019.5
20260502230055 15 133 19.3 40.2 0.00 0.00 0.00 36 1019.7
20260502225557 16 166 17.7 40.2 0.00 0.00 0.00 35 1019.7
20260502225057 16 272 9.7 20.9 0.00 0.00 0.00 34 1019.4
20260502224557 16 237 0.0 9.7 0.00 0.00 0.00 35 1019.5
20260502224057 16 280 0.0 9.7 0.00 0.00 0.00 35 1019.7
20260502223559 17 176 1.6 4.8 0.00 0.00 0.00 34 1019.7
20260502223055 17 0 0.0 4.8 0.00 0.00 0.00 32 1019.8
20260502222559 17 0 0.0 4.8 0.00 0.00 0.00 32 1019.9
20260502222057 17 0 0.0 6.4 0.00 0.00 0.00 31 1019.8
20260502221555 17 301 1.6 6.4 0.00 0.00 0.00 34 1019.9
20260502221057 17 264 0.0 9.7 0.00 0.00 0.00 33 1019.8
20260502220557 17 192 3.2 9.7 0.00 0.00 0.00 31 1020.0
20260502220055 17 167 0.0 14.5 0.00 0.00 0.00 30 1020.2
20260502215556 16 265 8.0 14.5 0.00 0.00 0.00 28 1020.2
20260502215058 16 155 4.8 25.7 0.00 0.00 0.00 28 1020.2
20260502214559 16 149 11.3 25.7 0.00 0.00 0.00 28 1020.2
20260502214057 16 149 6.4 22.5 0.00 0.00 0.00 28 1020.1
20260502213557 16 134 8.0 22.5 0.00 0.00 0.00 28 1020.2
20260502213054 16 157 11.3 22.5 0.00 0.00 0.00 28 1020.2
20260502212557 16 116 8.0 19.3 0.00 0.00 0.00 27 1020.2
20260502212057 16 107 6.4 25.7 0.00 0.00 0.00 28 1020.2
20260502211556 16 146 11.3 29.0 0.00 0.00 0.00 27 1020.3